Вернуться в каталог

BREEZE-M DEB

АктивенHEO
NORAD 34242·DEBRIS·🇷🇺 Russia

Запущен Feb 28, 2006 с Baikonur Cosmodrome

Loading…

Ближайшие Пролёты (ближайшие 24 часа)

TLE

УстаревающийSource: Space-Track

Эпоха: Aug 23, 2026, 09:13 UTC

1 34242U 06006BH  26235.38448193  .00000245  00000-0  34731-2 0  9996
2 34242  53.3811 216.8080 4975210 109.1041 309.7235  5.04141692263728

Отслеживайте BREEZE-M DEB в реальном времени с AllMySat

Download on the App Store